This is the latest recevied weather packets stored in our database for station/object G1YBJ-13. If no packets are shown the sender has not sent any weather packets the latest 10 day(s).
| Time | Temp. | Humidity | Pressure | Rain* | Wind** | Luminosity | Snow |
|---|---|---|---|---|---|---|---|
| 1777778484 | 13.33° C | 81% | 1009.2 hPa | - | - | - | - |
| 1777777582 | 13.33° C | 81% | 1009.2 hPa | - | - | - | - |
| 1777776681 | 13.33° C | 81% | 1009.3 hPa | - | - | - | - |
| 1777775780 | 13.33° C | 80% | 1009.4 hPa | - | - | - | - |
| 1777774879 | 13.33° C | 80% | 1009.4 hPa | - | - | - | - |
| 1777773978 | 13.33° C | 80% | 1009.4 hPa | - | - | - | - |
| 1777773076 | 13.33° C | 81% | 1009.6 hPa | - | - | - | - |
| 1777772174 | 13.33° C | 81% | 1009.6 hPa | - | - | - | - |
| 1777771273 | 13.89° C | 85% | 1009.8 hPa | - | - | - | - |
| 1777770372 | 14.44° C | 83% | 1009.9 hPa | - | - | - | - |
| 1777769471 | 14.44° C | 83% | 1010 hPa | - | - | - | - |
| 1777768569 | 14.44° C | 82% | 1010.1 hPa | - | - | - | - |
| 1777767666 | 14.44° C | 83% | 1010.1 hPa | - | - | - | - |
| 1777766765 | 14.44° C | 84% | 1010.3 hPa | - | - | - | - |
| 1777765864 | 14.44° C | 82% | 1010.4 hPa | - | - | - | - |
| 1777764962 | 14.44° C | 83% | 1010.5 hPa | - | - | - | - |
| 1777764061 | 14.44° C | 86% | 1010.5 hPa | - | - | - | - |
| 1777763161 | 14.44° C | 85% | 1010.5 hPa | - | - | - | - |
| 1777762259 | 14.44° C | 85% | 1010.4 hPa | - | - | - | - |
| 1777761357 | 14.44° C | 84% | 1010.6 hPa | - | - | - | - |
| 1777760456 | 14.44° C | 81% | 1010.7 hPa | - | - | - | - |
| 1777759555 | 14.44° C | 84% | 1010.9 hPa | - | - | - | - |
| 1777758653 | 14.44° C | 82% | 1011.1 hPa | - | - | - | - |
| 1777757751 | 14.44° C | 84% | 1011.2 hPa | - | - | - | - |
| 1777756851 | 15° C | 84% | 1011.5 hPa | - | - | - | - |
* Rain since midnight (hover to see other rain measurements)
** Current wind speed in m/s (hover to see current wind gust speed)